Meteo Giornale » Osservazioni meteo Ungheria » Kecskemet

ore: 02:15 - Osservazioni Meteo Kecskemet
Lat. 46° 55' N Lon. 19° 45' E Alt. 113 metri s.l.m.

sereno

16 °C

Sereno

Temp. 24 Ore

16 °C

29 °C

Nord-Ovest

7.4 Km/h

Dew point 10 °C

Umidità 67 %

Visibilità  10 Km

Il sole sorge alle ore 06:01

Il sole tramonta alle ore 19:19

Data e Ora Cielo e Fenomeni T °C DP °C Um. % Pres. hPa Vis. km Vento km/h
Oggi h: 02:15 sereno Sereno 16 10 67 1021 10 NO 7.4
Oggi h: 01:45 sereno Sereno 16 10 67 1021 10 N 5.5
Oggi h: 01:15 sereno Sereno 17 10 63 1021 10 N 5.5
Oggi h: 00:45 sereno Sereno 17 10 63 1020 10 N 3.7
Oggi h: 00:15 sereno Sereno 17 11 67 1020 10 N 3.7
Ieri h: 23:45 sereno Sereno 18 10 59 1020 10 N 1.8
Ieri h: 23:15 sereno Sereno 18 11 63 1020 10 N 1.8
Ieri h: 22:45 sereno Sereno 20 10 52 1020 10 N 3.7
Ieri h: 22:15 sereno Sereno 20 10 52 1020 10 N 3.7
Ieri h: 21:45 sereno Sereno 21 9 46 1020 10 N 3.7
Ieri h: 21:15 sereno Sereno 22 9 43 1020 10 N 3.7
Ieri h: 20:45 sereno Sereno 22 9 43 1020 10 N 3.7
Ieri h: 20:15 sereno Sereno 23 9 40 1019 10 O/NO 7.4
Ieri h: 19:45 sereno Sereno 24 8 35 1019 10 O 9.3
Ieri h: 19:15 sereno Sereno 25 8 33 1019 10 O/NO 16.7
Ieri h: 18:45 sereno Sereno 26 8 31 1019 10 O/NO 16.7
Ieri h: 18:15 sereno Sereno 27 8 30 1019 10 O/NO 22.2
Ieri h: 17:45 sereno Sereno 27 8 30 1019 10 O/NO 29.6
Ieri h: 17:15 sereno Sereno 28 8 28 1018 10 O/NO 27.8
Ieri h: 16:45 sereno Sereno 28 8 28 1018 10 O/NO 29.6
Ieri h: 16:15 sereno Sereno 29 9 28 1018 10 O 24
Ieri h: 15:45 sereno Sereno 29 8 26 1018 10 O/NO 20.3
Ieri h: 15:15 sereno Sereno 29 7 25 1019 10 O/NO 24
Ieri h: 14:45 sereno Sereno 29 8 26 1019 10 O/NO 24
Ieri h: 14:15 sereno Sereno 28 8 28 1019 10 NO 24
Ieri h: 13:45 sereno Sereno 28 8 28 1019 10 NO 22.2
Ieri h: 13:15 sereno Sereno 28 8 28 1019 10 N/NO 27.8
Ieri h: 12:45 sereno Sereno 28 8 28 1019 10 O/NO 27.8
Ieri h: 12:15 sereno Sereno 27 9 32 1019 10 O/NO 25.9
Ieri h: 11:45 sereno Sereno 26 12 41 1019 10 O 18.5
Ieri h: 11:15 poco_nuvoloso Poco Nuvoloso 25 13 47 1020 10 O/NO 20.3
Ieri h: 10:45 molto_nuvoloso Molto Nuvoloso 24 13 50 1020 10 O/NO 16.7
Ieri h: 10:15 sereno Sereno 24 13 50 1019 10 O/NO 20.3
Ieri h: 09:45 sereno Sereno 23 14 56 1019 10 O/NO 20.3
Ieri h: 09:15 sereno Sereno 23 14 56 1019 10 O/NO 25.9
Ieri h: 08:45 sereno Sereno 22 15 64 1018 10 O/NO 20.3
Ieri h: 08:15 sereno Sereno 21 16 73 1018 10 O/NO 20.3
Ieri h: 07:15 sereno Sereno 19 15 77 1018 10 O/NO 13
Ieri h: 06:45 sereno Sereno 19 15 77 1017 10 O/NO 9.3
Ieri h: 06:15 sereno Sereno 19 15 77 1017 10 O 7.4
Ieri h: 05:45 sereno Sereno 19 15 77 1016 10 O/NO 7.4
Ieri h: 05:15 sereno Sereno 19 16 82 1016 10 NO 9.3
Ieri h: 04:45 sereno Sereno 19 16 82 1016 10 O 11.1
Ieri h: 04:15 sereno Sereno 19 17 88 1016 10 O 7.4
Ieri h: 03:45 sereno Sereno 19 17 88 1016 10 N 1.8